www.pogodaiklimat.ru

ПОГОДА в Маскоги, OK

  • Прогноз погоды в Маскоги
  • Монитор погоды в Маскоги
  • Климат в Маскоги

АРХИВ ПОГОДЫ в Маскоги

Время (UTC), дата Ветер
(напр.,м/с)
 
Видим.   Явления Облачность Т
(С)
Тd
(С)
f
(%)
Тe
(С)
Тes
(С)
Комфортность

P
(гПа)

Po
(гПа)
Тmin
(С)
Tmax
(С)
R
(мм)
SD
(см)
19:53 23.03 Ю  11 км  слабый дождь  10/10 1200 м  +11.7  +11.7  100  +9  +9    1017.0  995.0      5.3   
20:27 23.03 Ю  5 км  гроза, сильный дождь, дымка  10/10 1140 м  +11.1  +11.1  100  +8  +8      995.0         
20:34 23.03 ЮВ  3 км  гроза, дождь, дымка  10/10 1200 м  +11.1  +11.1  100  +8  +8      994.7         
20:46 23.03 ЮВ  5 км  сильный дождь, дымка  10/10 1200 м  +10.6  +10.6  100  +7  +7      994.7         
20:53 23.03 ЮВ  6 км  слабый дождь, дымка  10/10 1350 м  +10.6  +10.6  100  +8  +8    1016.5  994.4         
21:53 23.03 ЮВ  16 км    10/10 1200 м  +11.1  +11.1  100  +8  +8    1016.3  994.4         
22:53 23.03 ЮВ  16 км  слабый дождь  10/10 1170 м  +11.7  +10.6  93  +9  +9    1016.6  994.7  +10.6  +12.2  8.9   
23:49 23.03 ЮВ  16 км  гроза, слабый дождь  10/10 1080 м  +12.0  +11.0  94  +9  +9      994.7         
23:53 23.03 ЮВ  16 км  гроза, слабый дождь  10/10 1080 м  +11.7  +11.1  96  +9  +9    1016.6  994.7         
00:04 24.03 ЮВ  14 км  слабый дождь  10/10 1080 м  +11.7  +11.1  96  +8  +8      994.4         
00:53 24.03 ЮВ  16 км    10/10 1110 м  +11.7  +11.1  96  +8  +8    1016.3  994.4         
01:53 24.03 ЮВ  8
{13} 
16 км    10/10 1110 м  +12.8  +11.1  89  +10  +10    1015.6  993.7      1.5   
02:53 24.03 ЮВ  5
{10} 
16 км    10/10 1170 м  +12.8  +11.1  89  +10  +10    1015.7  993.7         
03:53 24.03 В  16 км  гроза  10/10 1230 м  +12.8  +11.7  93  +11  +11    1016.7  994.7         
04:12 24.03 С  7
{12} 
16 км  гроза со слабым дождем  10/10 510 м  +12.8  +11.7  93  +10  +10      996.0         
04:28 24.03 ЮВ  4 км  гроза с сильным дождем, дымка  10/10 540 м  +12.8  +11.7  93  +10  +10      994.7         
04:31 24.03 ЮВ  5
{10} 
5 км  гроза с дождем, дымка  10/10 540 м  +12.8  +12.2  96  +10  +10      994.7         
04:49 24.03 В  16 км  гроза  10/10 1290 м  +13.0  +12.0  94  +12  +12      994.7         
04:53 24.03 ЮВ  16 км  гроза  10/10 960 м  +12.8  +12.2  96  +11  +11    1017.0  995.0  +11.7  +13.3  5.3   
05:01 24.03 ЮВ  16 км    10/10 1230 м  +12.8  +12.2  96  +10  +10      994.7         
05:22 24.03 ЮВ  16 км  гроза, слабый дождь  10/2 1170 м
[средняя] 
+12.2  +12.2  100  +9  +9      994.4         
05:49 24.03 ЮВ  8
{13} 
4 км  сильный дождь, дымка  10/8 1080 м
[средняя] 
+12.0  +12.0  100  +8  +8      994.0         
05:53 24.03 ЮВ  6 км  гроза со слабым дождем, дымка  10/8 1110 м
[средняя] 
+12.2  +12.2  100  +9  +9    1016.4  994.4         
06:07 24.03 ЮВ  16 км  слабый дождь  5/5 1140 м  +12.2  +12.2  100  +10  +10      994.4         
06:53 24.03 Ю  16 км    2/2 1230 м  +12.2  +12.2  100  +10  +10    1016.4  994.4         
07:53 24.03 Ю  16 км    8/8 1080 м  +11.7  +11.7  100  +9  +9    1015.7  993.7      5.1   
08:30 24.03 ЮВ  16 км    10/10 840 м  +11.7  +11.7  100  +9  +9      993.4         
08:53 24.03 Ю  16 км    10/10 780 м  +11.7  +11.7  100  +9  +9    1015.5  993.7         
09:53 24.03 ЮВ  16 км    10/10 690 м  +12.2  +12.2  100  +10  +10    1015.7  993.7         
10:44 24.03 ЮВ  16 км    10/10 630 м  +12.2  +12.2  100  +10  +10      993.7         
10:53 24.03 ЮВ  16 км    10/10 630 м  +12.2  +12.2  100  +10  +10    1015.9  993.7  +11.7  +12.8  5.1   
11:53 24.03 Ю  16 км    10/10 1110 м  +12.2  +12.2  100  +10  +10    1016.3  994.4         
12:53 24.03 Ю  16 км    10/10 1170 м  +13.3  +13.3  100  +11  +11    1016.5  994.4         
13:28 24.03 Ю  16 км    10/10 750 м  +13.9  +13.9  100  +12  +12      994.7         
13:51 24.03 Ю  16 км    10/10 720 м  +14.0  +14.0  100  +12  +12      994.7         
13:53 24.03 Ю  16 км    10/10 750 м  +14.4  +14.4  100  +13  +13    1016.5  994.7         
14:35 24.03 Ю  16 км    10/10 270 м  +15.6  +15.0  96  +14  +14      994.7         
14:53 24.03 ЮВ  16 км    10/10 690 м  +16.1  +15.0  93  +15  +15    1016.7  994.7         
15:09 24.03 ЮВ  16 км    10/10 270 м  +16.7  +15.6  93  +16  +16      994.7         
15:32 24.03 Ю  16 км    8/8 270 м  +17.2  +16.1  93  +16  +17      994.7         
15:43 24.03 Ю  16 км    8/8 330 м  +17.2  +16.1  93  +17  +18      994.4         
15:50 24.03 Ю  16 км    10/10 330 м  +18.0  +16.0  88  +18  +18      994.7         
15:53 24.03 Ю  16 км    10/10 330 м  +17.8  +16.1  90  +18  +18    1016.4  994.7         
16:16 24.03 Ю  16 км    8/8 390 м  +18.9  +16.7  87  +20  +21      994.0         
16:25 24.03 Ю  16 км    8/8 480 м  +19.4  +17.2  87  +21  +22  комфорт    994.0         
16:53 24.03 Ю  16 км    8/8 1230 м  +20.0  +17.2  84  +22  +23  комфорт  1015.5  993.7  +12.2  +20.6     
17:53 24.03 Ю  16 км    8/8 780 м  +21.7  +16.7  73  +26  +27  душно  1014.7  993.0         
18:53 24.03 З  16 км    8/8 900 м  +22.2  +16.7  71  +27  +29  душно  1014.4  992.7         

 

Местоположение метеостанции Davis Field: широта 35.6569 долгота -95.3597 высота над уровнем моря 185 м.

В архиве по умолчанию представлена погода в Маскоги за последние 1-2 суток. Обновление информации о фактической погоде в базе происходит ежечасно! Архивные данные за месяц целиком и за предыдущие месяцы Вы можете получить, выбрав интересующий диапазон дат из раскрывающегося списка и нажав кнопку "Ввод!".

Внимание! Архив погоды МЕТАР в базе сайта хранится не более 60 дней. Нет смысла пытаться выбрать более раннюю дату.

Внимание! Время в таблицах - всемирное. Для получения местного времени необходимо прибавить поправку, которая в Маскоги равна -6 ч.

Ветер - указаны скорость ветра в м/с и направление, откуда дует ветер: С - северный, СВ - северо-восточный, В - восточный, ЮВ - юго-восточный, Ю - южный, ЮЗ - юго-западный, З - западный, СЗ - северо-западный.
Видимость - горизонтальная дальность видимости в метрах или километрах. При видимости от 1 до 10 км при отсутствии осадков обычно наблюдается дымка, при ухудшении видимости до 1 км и менее - туман. В сухую погоду видимость может ухудшаться дымом, пылью или мглою.
Атмосферные явления - указаны явления, наблюдавшиеся в указанный момент времени.
Облачность - указаны через наклонную черту верхняя и нижняя облачность в баллах и высота нижней границы облаков в метрах. Внимание: облачность, как и прочие метеорологические величины в США измеряются автоматическими метеостанциями. Указанные значения в баллах носят условный характер и показывают процент времени, в течение которого, в среднем, лазерный луч высотомера отражался от облаков обратно.
T - Температура воздуха - температура, измеренная на высоте 2 м над землей.
Td - Температура точки росы - температура, при понижении до которой содержащийся в воздухе водяной пар достигнет насыщения.
f - Относительная влажность воздуха - влажноcть воздуха, измеренная на высоте 2 м над землей.
Te - Эффективная температура - температура, которую ощущает одетый по сезону человек в тени. Характеристика душности погоды. При расчете учитывается влияние влажности воздуха и скорости ветра на теплоощущения человека.
Tes - Эффективная температура на солнце - температура, которую ощущает человек, с поправкой на солнечный нагрев. Характеристика знойности погоды. Зависит от высоты солнца над горизонтом, облачности и скорости ветра. Ночью, в пасмурную погоду, а также при ветре 12 м/с и более поправка равна нулю.
P - Атмосферное давление - приведенное к уровню моря атмосферное давление.
Po - Атмосферное давление - измеренное на уровне метеостанции атмосферное давление.
Tmin - Минимальная температура - минимум температуры воздуха на высоте 2 м над землей.
Tmax - Максимальная температура - максимум температуры воздуха на высоте 2 м над землей.
R - Количество осадков - Количество выпавших осадков за 3 или 6 часов, мм.
SD - Снежный покров - Высота снежного покрова, см.